Location: Bagong Pook
(14.2541°N, 120.8791°E)
Time: 02:37:04
(UTC+00:00)

Cosmos 1821 Rocket - Pass Details

Date: 13 January 2026
Orbit: 943 x 1004 km, 82.9° (Epoch: 15 February)

Event Time Altitude Azimuth Distance (km) Brightness Sun altitude
Rises 10:51:10 0° 353° (N) 3,633 6.9 -15.7°
Reaches altitude 10° 10:53:40 10° 352° (N) 2,679 6.2 -16.2°
Maximum altitude 10:59:46 76° 267° (W) 974 4.1 -17.6°
Drops below altitude 10° 11:05:49 10° 182° (S) 2,654 6.5 -19.0°
Sets 11:08:17 0° 180° (S) 3,597 7.2 -19.6°
